Regional Weather Roundup
Issued by NWS Memphis, TN

Home | Current Version | Previous Version | Text Only | Print | Product List | Glossary On
Versions: 1 2 3 4 5 6 7 8 9 10 11 12 13 14 15 16 17 18 19 20 21 22 23 24 25 26 27 28 29 30 31 32 33 34 35 36 37 38 39 40 41 42 43 44 45 46 47 48 49 50
000
ASUS44 KMEG 191010
RWRMEG
MEMPHIS CWA HOURLY WEATHER ROUNDUP
NATIONAL WEATHER SERVICE MEMPHIS TN
400 AM CST THU JAN 19 2017

...WEST TENNESSEE...

CITY           SKY/WX    TMP DP  RH WIND       PRES   REMARKS
MEMPHIS INTL   CLOUDY    56  54  93 VRB6      29.91F
NWS MEMPHIS      N/A     54 N/A N/A MISG        N/A
JACKSON        CLOUDY    51  50  96 E3        29.97F
BOLIVAR        CLOUDY    54  54 100 NE5       29.94F
DYERSBURG      CLOUDY    46  45  93 E9        29.95F
UNION CITY     CLOUDY   N/A N/A N/A CALM      29.97F
PARIS          CLOUDY    45  45 100 CALM      30.00S
HUNTINGDON     CLOUDY    48  46  93 NE6       29.98F FOG


...EASTERN ARKANSAS...

CITY           SKY/WX    TMP DP  RH WIND       PRES   REMARKS
JONESBORO      CLOUDY    47  45  93 NE13      29.91F
WEST MEMPHIS   CLOUDY    53  53 100 E6        29.90F FOG
BATESVILLE     CLOUDY    45  43  93 CALM      29.94F
NEWPORT        HVY RAIN  46  45  93 N8        29.91F FOG
WALNUT RIDGE   CLOUDY    45  43  93 NE9       29.92F
BLYTHEVILLE    CLOUDY    48  46  93 E7        29.94F
SEARCY         LGT RAIN  46  46 100 CALM      29.95S FOG
STUTTGART      CLOUDY    48  43  81 N3        29.91F
PINE BLUFF     CLOUDY    48  48 100 NW7       29.91F FOG
MONTICELLO     FOG       51  51 100 CALM      29.88F VSB 3/4


...NORTH MISSISSIPPI...

CITY           SKY/WX    TMP DP  RH WIND       PRES   REMARKS
TUPELO         MOCLDY    59  56  89 SE6       29.94F
OXFORD         MOCLDY    57  55  94 SE7       29.93F
BATESVILLE     CLOUDY    57  56  97 CALM      29.92F FOG
TUNICA         RAIN      52  52 100 E5        29.91F
CLARKSDALE     CLOUDY    54  54 100 N6        29.90F FOG
CORINTH        MOCLDY    54  52  94 CALM      29.95F
GREENWOOD      LGT RAIN  65  62  90 S9        29.90F
COLUMBUS       DRIZZLE   64  61  88 SE7       29.97F
STARKVILLE     RAIN      61  61 100 SE5       29.97F
GOLDEN TRIANGL CLOUDY    61  57  88 S8        29.91F


...SOUTHEAST MISSOURI...

CITY           SKY/WX    TMP DP  RH WIND       PRES   REMARKS
KENNETT        CLOUDY    48  46  93 E10       29.93F
WEST PLAINS    FOG       42  41  96 NE3       29.92F VSB 3/4
POPLAR BLUFF   CLOUDY    44  43  96 NE8       29.95F FOG
CAPE GIRARDEAU CLOUDY    43  42  97 E6        29.98F FOG


...NORTHWEST ALABAMA...

CITY           SKY/WX    TMP DP  RH WIND       PRES   REMARKS
MUSCLE SHOALS  CLOUDY    55  51  86 NE5       30.00F


...MIDDLE TENNESSEE...

CITY           SKY/WX    TMP DP  RH WIND       PRES   REMARKS
NASHVILLE      CLOUDY    48  43  82 CALM      30.03S
CLARKSVILLE    CLOUDY    47  41  80 E7        30.03S
COLUMBIA       CLOUDY   N/A N/A N/A E3        29.99F


...WESTERN KENTUCKY...

CITY           SKY/WX    TMP DP  RH WIND       PRES   REMARKS
PADUCAH        CLOUDY    46  41  82 E8        29.98F
FORT CAMPBELL  DRIZZLE   46  43  87 E6        30.02S


...CENTRAL ARKANSAS...

CITY           SKY/WX    TMP DP  RH WIND       PRES   REMARKS
LITTLE ROCK    DRZL/FOG  46  46 100 N3        29.93F VSB 1


SKY/WX REPORTED AS FAIR MEANS FEW OR NO CLOUDS BELOW
12 THOUSAND FEET.




USA.gov is the U.S. government's official web portal to all federal, state and local government web resources and services.